Tracking 20623 objects as of 4-Apr-2020
HD Live streaming from Space Station
objects crossing your sky now

CZ-4 DEB

Track CZ-4 DEB now!
10-day predictions


NORAD ID: 29043
Int'l Code: 2004-035K
Perigee: 574.1 km
Apogee: 586.5 km
Inclination: 97.7 °
Period: 96.1 minutes
Semi major axis: 6951 km
RCS: 0.0201 m2 (small)
Launch date: September 8, 2004
Source: People's Republic of China (PRC)
Launch site: Taiyaun Space Center, China (TSC)

Note: This is SATELLITE DEBRIS
aabbcc
Your satellite tracking list
Your tracking list is empty




NASA's NSSDC Master Catalog

Two Line Element Set (TLE):
1 29043U 04035K   20094.30703705 -.00000478  00000-0 -35564-4 0  9998
2 29043  97.7174 119.3353 0008871 147.9481 212.2283 14.97977880781082
Source of the keplerian elements: AFSPC